DLH36N LOWS-EDDF

Flight info

Callsign DLH36N
Flight time 0h 43m
Altitude 30000
Route INROM2A INROM DCT SIMBA Y700 NENUM T161 DEBHI DEBHI1B
Aircraft A319/M-SDE3FGHIRWY/LB1

Departure

Time 2026-05-05 08:21
Airport Salzburg Airport (LOWS)

Arrival

Time 2026-05-05 09:05
Airport Frankfurt Main Airport (EDDF)
Time Latitude Longitude Altitude Speed Heading
2026-05-05 07:48 47.79286 13.00053 1420 ft 0 kts 102°
2026-05-05 08:13 47.79286 13.00054 1420 ft 0 kts 108°
2026-05-05 08:13 47.79277 13.00058 1420 ft 2 kts 167°
2026-05-05 08:14 47.79252 13.00036 1420 ft 6 kts 211°
2026-05-05 08:14 47.79196 13.00007 1420 ft 11 kts 175°
2026-05-05 08:14 47.79123 13.00050 1420 ft 12 kts 157°
2026-05-05 08:14 47.79043 13.00101 1420 ft 13 kts 157°
2026-05-05 08:15 47.78963 13.00166 1420 ft 13 kts 125°
2026-05-05 08:15 47.78953 13.00307 1420 ft 14 kts 92°
2026-05-05 08:15 47.78891 13.00406 1422 ft 15 kts 158°
2026-05-05 08:15 47.78795 13.00467 1420 ft 15 kts 156°
2026-05-05 08:16 47.78693 13.00531 1421 ft 16 kts 156°
2026-05-05 08:16 47.78587 13.00599 1420 ft 17 kts 156°
2026-05-05 08:16 47.78477 13.00669 1420 ft 18 kts 157°
2026-05-05 08:16 47.78361 13.00742 1420 ft 18 kts 157°
2026-05-05 08:17 47.78256 13.00810 1420 ft 16 kts 154°
2026-05-05 08:17 47.78211 13.00861 1423 ft 0 kts 132°
2026-05-05 08:19 47.78202 13.00874 1420 ft 5 kts 132°
2026-05-05 08:19 47.78183 13.00958 1421 ft 11 kts 88°
2026-05-05 08:20 47.78215 13.01071 1424 ft 12 kts 47°
2026-05-05 08:20 47.78272 13.01063 1422 ft 0 kts 336°
2026-05-05 08:20 47.78290 13.01052 1419 ft 21 kts 336°
2026-05-05 08:20 47.78695 13.00796 1421 ft 102 kts 337°
2026-05-05 08:21 47.79237 13.00453 1422 ft 147 kts 337°
2026-05-05 08:21 47.80230 12.99836 1882 ft 157 kts 337°
2026-05-05 08:21 47.81237 12.99212 2604 ft 157 kts 338°
2026-05-05 08:21 47.82378 12.98997 3060 ft 180 kts
2026-05-05 08:22 47.83587 12.99818 3420 ft 206 kts 36°
2026-05-05 08:22 47.84809 13.01172 3816 ft 232 kts 36°
2026-05-05 08:22 47.86182 13.02675 4365 ft 257 kts 37°
2026-05-05 08:22 47.87682 13.04309 5102 ft 273 kts 36°
2026-05-05 08:23 47.89237 13.05997 6080 ft 280 kts 36°
2026-05-05 08:23 47.90820 13.07711 7051 ft 284 kts 37°
2026-05-05 08:23 47.92434 13.09460 8043 ft 288 kts 37°
2026-05-05 08:23 47.94065 13.11228 9053 ft 292 kts 37°
2026-05-05 08:24 47.95717 13.13019 10047 ft 295 kts 37°
2026-05-05 08:24 47.97449 13.14850 10544 ft 318 kts 32°
2026-05-05 08:24 47.99528 13.16230 11071 ft 335 kts 16°
2026-05-05 08:24 48.01851 13.16752 11872 ft 342 kts
2026-05-05 08:25 48.04225 13.16328 12712 ft 346 kts 344°
2026-05-05 08:25 48.06457 13.14954 13558 ft 350 kts 330°
2026-05-05 08:25 48.08610 13.13215 14325 ft 354 kts 330°
2026-05-05 08:25 48.10788 13.11454 15067 ft 358 kts 330°
2026-05-05 08:26 48.12987 13.09676 15816 ft 361 kts 330°
2026-05-05 08:26 48.15211 13.07878 16562 ft 365 kts 330°
2026-05-05 08:26 48.17463 13.06060 17310 ft 369 kts 330°
2026-05-05 08:26 48.19738 13.04226 18039 ft 373 kts 330°
2026-05-05 08:27 48.22068 13.02457 18669 ft 378 kts 336°
2026-05-05 08:27 48.24594 13.01266 19309 ft 384 kts 347°
2026-05-05 08:27 48.27247 13.00644 19966 ft 388 kts 351°
2026-05-05 08:27 48.29928 13.00068 20617 ft 391 kts 351°
2026-05-05 08:28 48.32631 12.99479 21273 ft 394 kts 350°
2026-05-05 08:28 48.35357 12.98876 21928 ft 397 kts 350°
2026-05-05 08:28 48.38104 12.98267 22545 ft 401 kts 350°
2026-05-05 08:28 48.40882 12.97653 23157 ft 405 kts 350°
2026-05-05 08:29 48.43686 12.97032 23717 ft 409 kts 350°
2026-05-05 08:29 48.46510 12.96394 24232 ft 412 kts 348°
2026-05-05 08:29 48.49251 12.95184 24725 ft 412 kts 335°
2026-05-05 08:30 48.53931 12.90328 25721 ft 410 kts 311°
2026-05-05 08:30 48.55672 12.86932 26210 ft 409 kts 298°
2026-05-05 08:30 48.56894 12.83136 26697 ft 408 kts 289°
2026-05-05 08:30 48.57926 12.79138 27192 ft 410 kts 289°
2026-05-05 08:31 48.58967 12.75118 27678 ft 412 kts 289°
2026-05-05 08:31 48.59995 12.71147 28158 ft 414 kts 289°
2026-05-05 08:31 48.61068 12.67018 28648 ft 417 kts 289°
2026-05-05 08:31 48.62117 12.62976 29100 ft 420 kts 289°
2026-05-05 08:32 48.63196 12.58801 29569 ft 422 kts 289°
2026-05-05 08:32 48.64245 12.54713 29821 ft 424 kts 289°
2026-05-05 08:32 48.65312 12.50532 29856 ft 427 kts 289°
2026-05-05 08:33 48.67465 12.42076 29859 ft 428 kts 289°
2026-05-05 08:33 48.69608 12.33657 29851 ft 429 kts 289°
2026-05-05 08:34 48.71746 12.25231 29861 ft 429 kts 288°
2026-05-05 08:34 48.73866 12.16855 29853 ft 428 kts 288°
2026-05-05 08:35 48.75431 12.08230 29847 ft 423 kts 276°
2026-05-05 08:35 48.76363 11.99468 29845 ft 423 kts 277°
2026-05-05 08:36 48.77321 11.90618 29848 ft 423 kts 277°
2026-05-05 08:36 48.78272 11.81803 29858 ft 424 kts 276°
2026-05-05 08:37 48.79209 11.72984 29854 ft 424 kts 276°
2026-05-05 08:37 48.80133 11.64157 29853 ft 424 kts 276°
2026-05-05 08:38 48.81053 11.55329 29853 ft 424 kts 276°
2026-05-05 08:38 48.81969 11.46492 29851 ft 424 kts 276°
2026-05-05 08:39 48.82883 11.37658 29862 ft 424 kts 276°
2026-05-05 08:39 48.83840 11.28820 29852 ft 426 kts 281°
2026-05-05 08:40 48.86213 11.20553 29853 ft 433 kts 301°
2026-05-05 08:40 48.90327 11.13791 29850 ft 439 kts 314°
2026-05-05 08:41 48.94834 11.07515 29852 ft 440 kts 314°
2026-05-05 08:41 48.99342 11.01219 29869 ft 440 kts 314°
2026-05-05 08:42 49.03843 10.94893 29882 ft 440 kts 314°
2026-05-05 08:42 49.08339 10.88549 29879 ft 441 kts 314°
2026-05-05 08:43 49.12834 10.82211 29443 ft 441 kts 314°
2026-05-05 08:43 49.15103 10.79007 29162 ft 442 kts 314°
2026-05-05 08:43 49.17361 10.75815 28883 ft 443 kts 314°
2026-05-05 08:43 49.19618 10.72612 28608 ft 442 kts 314°
2026-05-05 08:44 49.21823 10.69361 28243 ft 439 kts 312°
2026-05-05 08:44 49.23956 10.66056 27575 ft 434 kts 311°
2026-05-05 08:44 49.26023 10.62746 26955 ft 428 kts 310°
2026-05-05 08:44 49.28057 10.59444 26322 ft 424 kts 310°
2026-05-05 08:45 49.30069 10.56179 25702 ft 419 kts 310°
2026-05-05 08:45 49.32070 10.52961 25094 ft 415 kts 310°
2026-05-05 08:45 49.34066 10.49782 24492 ft 412 kts 310°
2026-05-05 08:45 49.36015 10.46590 23904 ft 407 kts 306°
2026-05-05 08:46 49.37680 10.43111 23468 ft 404 kts 302°
2026-05-05 08:46 49.39293 10.39578 23022 ft 404 kts 302°
2026-05-05 08:46 49.40884 10.36105 22620 ft 403 kts 302°
2026-05-05 08:46 49.42496 10.32590 22206 ft 401 kts 302°
2026-05-05 08:47 49.44098 10.29088 21808 ft 401 kts 302°
2026-05-05 08:47 49.45694 10.25587 21400 ft 399 kts 302°
2026-05-05 08:47 49.47281 10.22091 20995 ft 398 kts 302°
2026-05-05 08:47 49.48860 10.18603 20597 ft 396 kts 301°
2026-05-05 08:48 49.50428 10.15130 20189 ft 395 kts 301°
2026-05-05 08:48 49.51995 10.11660 19788 ft 394 kts 301°
2026-05-05 08:48 49.53555 10.08209 19395 ft 392 kts 301°
2026-05-05 08:48 49.55103 10.04787 18993 ft 388 kts 301°
2026-05-05 08:49 49.56637 10.01384 18598 ft 386 kts 301°
2026-05-05 08:49 49.58166 9.97993 18206 ft 384 kts 301°
2026-05-05 08:49 49.59686 9.94616 17777 ft 382 kts 301°
2026-05-05 08:49 49.61196 9.91254 17399 ft 381 kts 301°
2026-05-05 08:50 49.62698 9.87905 17000 ft 378 kts 301°
2026-05-05 08:50 49.64188 9.84575 16615 ft 376 kts 301°
2026-05-05 08:50 49.65665 9.81267 16233 ft 373 kts 301°
2026-05-05 08:50 49.67127 9.77987 15858 ft 370 kts 301°
2026-05-05 08:51 49.68577 9.74731 15477 ft 367 kts 302°
2026-05-05 08:51 49.70020 9.71492 15104 ft 364 kts 302°
2026-05-05 08:51 49.71445 9.68284 14735 ft 361 kts 302°
2026-05-05 08:51 49.72862 9.65094 14367 ft 359 kts 302°
2026-05-05 08:52 49.74267 9.61930 14004 ft 356 kts 302°
2026-05-05 08:52 49.75663 9.58790 13638 ft 353 kts 302°
2026-05-05 08:52 49.77048 9.55669 13255 ft 351 kts 302°
2026-05-05 08:52 49.78424 9.52564 12993 ft 350 kts 302°
2026-05-05 08:53 49.79795 9.49462 12735 ft 349 kts 302°
2026-05-05 08:53 49.81164 9.46361 12467 ft 348 kts 302°
2026-05-05 08:53 49.82526 9.43260 12212 ft 348 kts 302°
2026-05-05 08:53 49.83875 9.40184 11779 ft 343 kts 302°
2026-05-05 08:54 49.85255 9.37186 11250 ft 342 kts 308°
2026-05-05 08:54 49.86962 9.34617 10772 ft 344 kts 320°
2026-05-05 08:54 49.88988 9.32648 10334 ft 343 kts 332°
2026-05-05 08:54 49.91103 9.30992 9896 ft 338 kts 332°
2026-05-05 08:55 49.93164 9.29367 9377 ft 326 kts 332°
2026-05-05 08:55 49.95150 9.27793 8844 ft 314 kts 331°
2026-05-05 08:55 49.97063 9.26271 8340 ft 304 kts 332°
2026-05-05 08:55 49.98919 9.24791 7826 ft 296 kts 332°
2026-05-05 08:56 50.00731 9.23364 7392 ft 289 kts 332°
2026-05-05 08:56 50.02521 9.21970 6998 ft 287 kts 332°
2026-05-05 08:56 50.04306 9.20583 6643 ft 286 kts 332°
2026-05-05 08:56 50.05921 9.18864 6284 ft 280 kts 311°
2026-05-05 08:57 50.07129 9.16518 5969 ft 276 kts 304°
2026-05-05 08:57 50.08250 9.14147 5715 ft 275 kts 304°
2026-05-05 08:57 50.09389 9.11734 5456 ft 269 kts 304°
2026-05-05 08:57 50.10469 9.09430 5250 ft 258 kts 304°
2026-05-05 08:58 50.11504 9.07199 5044 ft 249 kts 304°
2026-05-05 08:58 50.12474 9.05016 4852 ft 241 kts 297°
2026-05-05 08:58 50.12924 9.02593 4664 ft 235 kts 276°
2026-05-05 08:58 50.13116 9.00067 4550 ft 235 kts 274°
2026-05-05 08:59 50.13149 8.97539 4418 ft 233 kts 256°
2026-05-05 08:59 50.12633 8.95157 4287 ft 232 kts 248°
2026-05-05 08:59 50.12073 8.92802 4165 ft 229 kts 248°
2026-05-05 08:59 50.11536 8.90521 4056 ft 219 kts 249°
2026-05-05 09:00 50.11024 8.88337 3974 ft 209 kts 249°
2026-05-05 09:00 50.10548 8.86312 3983 ft 191 kts 248°
2026-05-05 09:00 50.10099 8.84403 3787 ft 185 kts 248°
2026-05-05 09:00 50.09661 8.82541 3547 ft 181 kts 248°
2026-05-05 09:01 50.09228 8.80705 3319 ft 181 kts 248°
2026-05-05 09:01 50.08794 8.78866 3077 ft 180 kts 249°
2026-05-05 09:01 50.08362 8.77036 2840 ft 180 kts 249°
2026-05-05 09:01 50.07934 8.75223 2596 ft 179 kts 249°
2026-05-05 09:02 50.07504 8.73407 2363 ft 178 kts 249°
2026-05-05 09:02 50.07084 8.71624 2123 ft 171 kts 250°
2026-05-05 09:02 50.06837 8.69874 1882 ft 161 kts 264°
2026-05-05 09:02 50.06730 8.68198 1696 ft 151 kts 259°
2026-05-05 09:03 50.06417 8.66681 1507 ft 142 kts 250°
2026-05-05 09:03 50.06093 8.65289 1373 ft 134 kts 250°
2026-05-05 09:03 50.05770 8.63941 1155 ft 132 kts 249°
2026-05-05 09:03 50.05449 8.62612 949 ft 131 kts 250°
2026-05-05 09:04 50.05134 8.61285 790 ft 131 kts 250°
2026-05-05 09:04 50.04817 8.59959 597 ft 130 kts 250°
2026-05-05 09:04 50.04498 8.58639 417 ft 130 kts 250°
2026-05-05 09:04 50.04208 8.57417 366 ft 105 kts 249°
2026-05-05 09:05 50.04004 8.56563 360 ft 71 kts 250°
2026-05-05 09:05 50.03909 8.56159 357 ft 45 kts 251°
2026-05-05 09:05 50.03895 8.55770 357 ft 20 kts 280°
2026-05-05 09:05 50.03945 8.55630 348 ft 15 kts 356°
2026-05-05 09:06 50.04001 8.55753 355 ft 16 kts 70°
2026-05-05 09:06 50.04043 8.55927 353 ft 18 kts 70°
2026-05-05 09:06 50.04087 8.56110 356 ft 18 kts 69°
2026-05-05 09:06 50.04132 8.56300 353 ft 19 kts 69°
2026-05-05 09:07 50.04179 8.56494 354 ft 19 kts 70°
2026-05-05 09:07 50.04225 8.56688 362 ft 19 kts 70°
2026-05-05 09:07 50.04303 8.56814 360 ft 17 kts 11°
2026-05-05 09:07 50.04423 8.56848 362 ft 18 kts
2026-05-05 09:08 50.04549 8.56890 359 ft 17 kts 13°
2026-05-05 09:08 50.04663 8.56941 360 ft 16 kts 24°
2026-05-05 09:08 50.04758 8.57009 356 ft 13 kts 24°
2026-05-05 09:08 50.04827 8.57058 356 ft 8 kts 24°
2026-05-05 09:09 50.04840 8.57094 360 ft 4 kts 94°
2026-05-05 09:09 50.04827 8.57139 358 ft 5 kts 115°
2026-05-05 09:09 50.04817 8.57173 361 ft 2 kts 115°
2026-05-05 09:09 50.04814 8.57182 362 ft 0 kts 115°